Location: Palo Alto
(37.4420°N, 122.1420°W)
Time: 09:55:12
(UTC-08:00)

ISS - All Passes

Search period start: 06 December 2016 00:00
Search period end: 16 December 2016 00:00
Orbit: 401 x 410 km, 51.6° (Epoch: 06 December)

Date Brightness Start Highest point End Pass type
(mag) Time Alt. Az. Time Alt. Az. Time Alt. Az.
06 Dec - 00:11:31 10° W 00:14:04 21° SW 00:16:37 10° S night (unlit)
06 Dec - 15:13:24 10° SSW 15:16:18 30° SE 15:19:14 10° ENE daylight
06 Dec - 16:49:57 10° W 16:52:48 26° NNW 16:55:40 10° NNE daylight
06 Dec - 21:42:58 10° NNW 21:45:38 22° NNE 21:48:17 10° E night (unlit)
06 Dec - 23:19:06 10° WNW 23:22:15 42° SW 23:25:23 10° SSE night (unlit)
07 Dec - 14:22:32 10° SSE 14:24:31 15° SE 14:26:32 10° E daylight
07 Dec - 15:57:34 10° WSW 16:00:43 46° NW 16:03:56 10° NE daylight
07 Dec - 17:36:54 10° NW 17:37:54 11° NNW 17:38:53 10° N visible
07 Dec - 20:51:27 10° NNW 20:53:26 15° NNE 20:55:26 10° ENE night (unlit)
07 Dec - 22:27:02 10° NW 22:30:21 90° NNE 22:33:38 10° SE night (unlit)
08 Dec - 15:05:28 10° SW 15:08:44 86° SE 15:12:03 10° NE daylight
08 Dec - 16:43:37 10° WNW 16:45:37 15° NNW 16:47:39 10° NNE daylight
08 Dec - 20:00:15 10° N 20:01:10 11° NNE 20:02:04 10° NNE night (unlit)
08 Dec - 21:35:09 10° NW 21:38:20 44° NE 21:41:32 10° ESE night (unlit)
08 Dec - 23:12:27 10° W 23:14:34 16° SW 23:16:41 10° S night (unlit)
09 Dec - 14:13:44 10° SSW 14:16:49 40° SE 14:19:55 10° ENE daylight
09 Dec - 15:50:46 10° W 15:53:25 22° NNW 15:56:05 10° NNE daylight
09 Dec - 20:43:24 10° NNW 20:46:14 26° NNE 20:49:05 10° E night (unlit)
09 Dec - 22:19:46 10° WNW 22:22:45 32° SW 22:25:43 10° SSE night (unlit)
10 Dec - 13:22:31 10° S 13:24:58 20° SE 13:27:26 10° E daylight
10 Dec - 14:58:13 10° WSW 15:01:17 36° NW 15:04:22 10° NE daylight
10 Dec - 19:51:47 10° NNW 19:54:03 17° NNE 19:56:19 10° ENE night (unlit)
10 Dec - 21:27:33 10° NW 21:30:51 68° SW 21:34:06 10° SE night (unlit)
11 Dec - 14:05:57 10° SW 14:09:13 71° NW 14:12:31 10° NE daylight
11 Dec - 15:44:32 10° NW 15:46:13 13° NNW 15:47:53 10° N daylight
11 Dec - 19:00:21 10° N 19:01:45 12° NNE 19:03:10 10° NE visible
11 Dec - 20:35:33 10° NW 20:38:50 58° NE 20:42:05 10° ESE night (unlit)
11 Dec - 22:13:31 10° WSW 22:14:57 12° SW 22:16:23 10° SSW night (unlit)
12 Dec - 13:14:02 10° SW 13:17:13 54° SE 13:20:27 10° ENE daylight
12 Dec - 14:51:30 10° WNW 14:53:56 19° NNW 14:56:22 10° NNE daylight
12 Dec - 19:43:43 10° NNW 19:46:44 31° NNE 19:49:43 10° E visible
12 Dec - 21:20:23 10° WNW 21:23:07 24° SW 21:25:52 10° S night (unlit)
13 Dec - 12:22:33 10° S 12:25:18 25° SE 12:28:05 10° ENE daylight
13 Dec - 13:58:48 10° W 14:01:44 29° NNW 14:04:40 10° NNE daylight
13 Dec - 18:52:00 10° NNW 18:54:31 20° NNE 18:57:02 10° ENE visible
13 Dec - 20:27:59 10° WNW 20:31:12 50° SW 20:34:24 10° SSE night (unlit)
14 Dec - 11:31:54 10° SSE 11:33:28 13° SE 11:35:01 10° E daylight
14 Dec - 13:06:23 10° WSW 13:09:35 54° NW 13:12:50 10° NE daylight
14 Dec - 14:45:25 10° NW 14:46:41 12° NNW 14:47:57 10° N daylight
14 Dec - 18:00:27 10° N 18:02:14 14° NNE 18:04:01 10° NE visible
14 Dec - 19:35:53 10° NW 19:39:12 76° NE 19:42:29 10° SE visible
15 Dec - 12:14:18 10° SW 12:17:32 73° SE 12:20:49 10° NE daylight
15 Dec - 13:52:11 10° WNW 13:54:21 16° NNW 13:56:32 10° NNE daylight
15 Dec - 17:09:32 10° N 17:09:51 10° NNE 17:10:09 10° NNE daylight
15 Dec - 18:43:58 10° NW 18:47:05 38° NE 18:50:12 10° ESE visible
15 Dec - 20:20:58 10° W 20:23:22 19° SW 20:25:46 10° S night (unlit)
